• In Netherlands
  • List of Countries
  • For 7 days
  • Water Temperature
  • Satellite Maps
  • Weather Map
  • Weather Widgets
  • user-avatar
    Login

    Hourly Weather Salta

    Today, 23 July, Sunday

    Time Temperature Precipitation Wind Pressure Humidity
    00:00 +15°C° 0 mm 2 mps 648 mmHg 45%
    01:00 +15°C° 0 mm 2 mps 648 mmHg 44%
    02:00 +15°C° 0 mm 2 mps 648 mmHg 43%
    03:00 +15°C° 0 mm 2 mps 647 mmHg 42%
    04:00 +14°C° 0 mm 3 mps 647 mmHg 41%
    05:00 +14°C° 0 mm 3 mps 647 mmHg 39%
    06:00 +16°C° 0 mm 2 mps 648 mmHg 36%
    07:00 +16°C° 0 mm 2 mps 648 mmHg 33%
    08:00 +17°C° 0 mm 2 mps 649 mmHg 29%
    09:00 +20°C° 0 mm 2 mps 650 mmHg 24%
    10:00 +25°C° 0 mm 2 mps 651 mmHg 19%
    11:00 +28°C° 0 mm 2 mps 652 mmHg 15%
    12:00 +29°C° 0 mm 2 mps 651 mmHg 14%
    13:00 +29°C° 0 mm 2 mps 651 mmHg 14%
    14:00 +30°C° 0 mm 2 mps 651 mmHg 14%
    15:00 +29°C° 0 mm 2 mps 650 mmHg 17%
    16:00 +28°C° 0 mm 2 mps 650 mmHg 20%
    17:00 +27°C° 0 mm 2 mps 650 mmHg 24%
    18:00 +24°C° 0 mm 2 mps 650 mmHg 30%
    19:00 +21°C° 0 mm 1 mps 650 mmHg 37%
    20:00 +19°C° 0 mm 1 mps 650 mmHg 44%
    21:00 +19°C° 0 mm 1 mps 650 mmHg 43%
    22:00 +18°C° 0 mm 1 mps 651 mmHg 42%
    23:00 +18°C° 0 mm 1 mps 651 mmHg 42%

    Tomorrow, 24 July, Monday

    Time Temperature Precipitation Wind Pressure Humidity
    00:00 +17°C° 0 mm 2 mps 651 mmHg 40%
    01:00 +17°C° 0 mm 2 mps 651 mmHg 38%
    02:00 +16°C° 0 mm 2 mps 651 mmHg 36%
    03:00 +16°C° 0 mm 2 mps 651 mmHg 35%
    04:00 +16°C° 0 mm 2 mps 651 mmHg 33%
    05:00 +16°C° 0 mm 2 mps 651 mmHg 32%
    06:00 +16°C° 0 mm 2 mps 651 mmHg 32%
    07:00 +17°C° 0 mm 2 mps 652 mmHg 31%
    08:00 +18°C° 0 mm 1 mps 652 mmHg 31%
    09:00 +20°C° 0 mm 2 mps 653 mmHg 29%
    10:00 +24°C° 0 mm 2 mps 654 mmHg 27%
    11:00 +26°C° 0 mm 2 mps 655 mmHg 25%
    12:00 +27°C° 0 mm 2 mps 654 mmHg 25%
    13:00 +28°C° 0 mm 2 mps 654 mmHg 24%
    14:00 +29°C° 0 mm 3 mps 653 mmHg 24%
    15:00 +28°C° 0 mm 3 mps 653 mmHg 27%
    16:00 +27°C° 0 mm 2 mps 653 mmHg 30%
    17:00 +26°C° 0 mm 2 mps 653 mmHg 33%
    18:00 +24°C° 0 mm 2 mps 652 mmHg 42%
    19:00 +21°C° 0 mm 1 mps 652 mmHg 50%
    20:00 +19°C° 0 mm 1 mps 652 mmHg 59%
    21:00 +18°C° 0 mm 1 mps 652 mmHg 59%
    22:00 +18°C° 0 mm 1 mps 653 mmHg 60%
    23:00 +16°C° 0 mm 1 mps 653 mmHg 60%

    Day after tomorrow, 25 July, Tuesday

    Time Temperature Precipitation Wind Pressure Humidity
    00:00 +16°C° 0 mm 1 mps 652 mmHg 60%
    01:00 +16°C° 0 mm 1 mps 652 mmHg 59%
    02:00 +16°C° 0 mm 1 mps 652 mmHg 58%
    03:00 +15°C° 0 mm 1 mps 652 mmHg 60%
    04:00 +15°C° 0 mm 1 mps 652 mmHg 61%
    05:00 +15°C° 0 mm 1 mps 652 mmHg 62%
    06:00 +15°C° 0 mm 1 mps 652 mmHg 60%
    07:00 +16°C° 0 mm 1 mps 653 mmHg 57%
    08:00 +18°C° 0 mm 1 mps 653 mmHg 55%
    09:00 +19°C° 0 mm 2 mps 654 mmHg 52%
    10:00 +21°C° 0 mm 2 mps 654 mmHg 48%
    11:00 +24°C° 0 mm 2 mps 655 mmHg 45%
    12:00 +25°C° 0 mm 2 mps 654 mmHg 43%
    13:00 +26°C° 0 mm 2 mps 653 mmHg 42%
    14:00 +26°C° 0 mm 3 mps 653 mmHg 41%
    15:00 +26°C° 0 mm 2 mps 653 mmHg 43%
    16:00 +25°C° 0 mm 2 mps 652 mmHg 45%
    17:00 +25°C° 0 mm 2 mps 652 mmHg 47%
    18:00 +23°C° 0 mm 2 mps 652 mmHg 55%
    19:00 +21°C° 0 mm 1 mps 652 mmHg 62%
    20:00 +19°C° 0 mm 1 mps 652 mmHg 70%
    21:00 +18°C° 0 mm 1 mps 652 mmHg 69%
    22:00 +18°C° 0 mm 1 mps 652 mmHg 67%
    23:00 +18°C° 0 mm 1 mps 652 mmHg 66%

    26 July, Wednesday

    Time Temperature Precipitation Wind Pressure Humidity
    00:00 +18°C° 0 mm 1 mps 652 mmHg 63%
    01:00 +17°C° 0 mm 2 mps 652 mmHg 60%
    02:00 +16°C° 0 mm 2 mps 652 mmHg 57%
    03:00 +16°C° 0 mm 2 mps 652 mmHg 56%
    04:00 +16°C° 0 mm 2 mps 652 mmHg 56%
    05:00 +16°C° 0 mm 1 mps 651 mmHg 56%
    06:00 +16°C° 0 mm 1 mps 652 mmHg 55%
    07:00 +18°C° 0 mm 1 mps 653 mmHg 54%
    08:00 +19°C° 0 mm 1 mps 653 mmHg 53%
    09:00 +21°C° 0 mm 1 mps 654 mmHg 48%
    10:00 +23°C° 0 mm 1 mps 654 mmHg 44%
    11:00 +26°C° 0 mm 2 mps 655 mmHg 40%
    12:00 +26°C° 0 mm 2 mps 654 mmHg 39%
    13:00 +27°C° 0 mm 2 mps 654 mmHg 39%
    14:00 +28°C° 0 mm 3 mps 653 mmHg 38%
    15:00 +27°C° 0 mm 3 mps 653 mmHg 41%
    16:00 +26°C° 0 mm 2 mps 653 mmHg 44%
    17:00 +26°C° 0 mm 2 mps 652 mmHg 48%
    18:00 +24°C° 0 mm 2 mps 652 mmHg 56%
    19:00 +21°C° 0 mm 2 mps 652 mmHg 63%
    20:00 +20°C° 0 mm 1 mps 652 mmHg 71%
    21:00 +19°C° 0 mm 1 mps 652 mmHg 70%
    22:00 +19°C° 0 mm 1 mps 652 mmHg 69%
    23:00 +19°C° 0 mm 1 mps 652 mmHg 68%

    27 July, Thursday

    Time Temperature Precipitation Wind Pressure Humidity
    00:00 +19°C° 0 mm 1 mps 652 mmHg 66%
    01:00 +18°C° 0 mm 1 mps 651 mmHg 63%
    02:00 +18°C° 0 mm 1 mps 651 mmHg 60%
    03:00 +18°C° 0 mm 1 mps 651 mmHg 58%
    04:00 +18°C° 0 mm 1 mps 651 mmHg 56%
    05:00 +16°C° 0 mm 1 mps 650 mmHg 55%
    06:00 +18°C° 0 mm 1 mps 651 mmHg 52%
    07:00 +19°C° 0 mm 1 mps 651 mmHg 50%
    08:00 +19°C° 0 mm 1 mps 652 mmHg 48%
    09:00 +21°C° 0 mm 2 mps 652 mmHg 43%
    10:00 +24°C° 0 mm 2 mps 653 mmHg 38%
    11:00 +27°C° 0 mm 2 mps 654 mmHg 33%
    12:00 +28°C° 0 mm 2 mps 653 mmHg 33%
    13:00 +28°C° 0 mm 3 mps 653 mmHg 32%
    14:00 +29°C° 0 mm 3 mps 652 mmHg 31%
    15:00 +28°C° 0 mm 3 mps 652 mmHg 34%
    16:00 +27°C° 0 mm 3 mps 651 mmHg 38%
    17:00 +27°C° 0 mm 2 mps 651 mmHg 41%
    18:00 +25°C° 0 mm 2 mps 651 mmHg 48%
    19:00 +22°C° 0 mm 1 mps 651 mmHg 55%
    20:00 +20°C° 0 mm 1 mps 651 mmHg 62%
    21:00 +20°C° 0 mm 1 mps 651 mmHg 61%
    22:00 +20°C° 0 mm 1 mps 651 mmHg 60%
    23:00 +19°C° 0 mm 1 mps 651 mmHg 58%

    28 July, Friday

    Time Temperature Precipitation Wind Pressure Humidity
    00:00 +19°C° 0 mm 1 mps 650 mmHg 55%
    01:00 +19°C° 0 mm 1 mps 650 mmHg 52%
    02:00 +19°C° 0 mm 1 mps 650 mmHg 49%
    03:00 +18°C° 0 mm 1 mps 650 mmHg 46%
    04:00 +18°C° 0 mm 1 mps 650 mmHg 44%
    05:00 +18°C° 0 mm 1 mps 649 mmHg 42%
    06:00 +18°C° 0 mm 1 mps 650 mmHg 39%
    07:00 +19°C° 0 mm 1 mps 651 mmHg 37%
    08:00 +20°C° 0 mm 1 mps 651 mmHg 35%
    09:00 +21°C° 0 mm 2 mps 652 mmHg 31%
    10:00 +25°C° 0 mm 2 mps 653 mmHg 27%
    11:00 +28°C° 0 mm 2 mps 653 mmHg 23%
    12:00 +29°C° 0 mm 2 mps 653 mmHg 23%
    13:00 +30°C° 0 mm 2 mps 653 mmHg 22%
    14:00 +30°C° 0 mm 3 mps 652 mmHg 22%
    15:00 +29°C° 0 mm 3 mps 652 mmHg 25%
    16:00 +29°C° 0 mm 2 mps 652 mmHg 28%
    17:00 +28°C° 0 mm 2 mps 651 mmHg 32%
    18:00 +25°C° 0 mm 2 mps 651 mmHg 39%
    19:00 +23°C° 0 mm 1 mps 651 mmHg 47%
    20:00 +21°C° 0 mm 1 mps 651 mmHg 54%
    21:00 +20°C° 0 mm 1 mps 652 mmHg 54%
    22:00 +20°C° 0 mm 1 mps 652 mmHg 55%
    23:00 +19°C° 0 mm 1 mps 652 mmHg 56%
    Show more